﻿測定場所 (Monitoring sites),日付 (Measurement date),時間 (Measurement time),線量率 最大値 (max) μGy/h,線量率 最小値 (min) μGy/h,線量率 平均値 (average) μGy/h,
大田 (Ota),2015-12-13,23:01～24:00,0.0402,0.0358,0.0379,
大田 (Ota),2015-12-13,22:01～23:00,0.0408,0.0356,0.0379,
大田 (Ota),2015-12-13,21:01～22:00,0.0409,0.0359,0.0382,
大田 (Ota),2015-12-13,20:01～21:00,0.0423,0.0358,0.0381,
大田 (Ota),2015-12-13,19:01～20:00,0.0411,0.0357,0.0379,
大田 (Ota),2015-12-13,18:01～19:00,0.0417,0.0360,0.0383,
大田 (Ota),2015-12-13,17:01～18:00,0.0425,0.0352,0.0381,
大田 (Ota),2015-12-13,16:01～17:00,0.0417,0.0363,0.0388,
大田 (Ota),2015-12-13,15:01～16:00,0.0459,0.0377,0.0409,
大田 (Ota),2015-12-13,14:01～15:00,0.0471,0.0406,0.0436,
大田 (Ota),2015-12-13,13:01～14:00,0.0517,0.0425,0.0458,
大田 (Ota),2015-12-13,12:01～13:00,0.0480,0.0422,0.0453,
大田 (Ota),2015-12-13,11:01～12:00,0.0506,0.0438,0.0466,
大田 (Ota),2015-12-13,10:01～11:00,0.0499,0.0396,0.0438,
大田 (Ota),2015-12-13,09:01～10:00,0.0441,0.0378,0.0408,
大田 (Ota),2015-12-13,08:01～09:00,0.0424,0.0369,0.0395,
大田 (Ota),2015-12-13,07:01～08:00,0.0438,0.0382,0.0408,
大田 (Ota),2015-12-13,06:01～07:00,0.0433,0.0356,0.0391,
大田 (Ota),2015-12-13,05:01～06:00,0.0409,0.0362,0.0381,
大田 (Ota),2015-12-13,04:01～05:00,0.0419,0.0359,0.0381,
大田 (Ota),2015-12-13,03:01～04:00,0.0421,0.0359,0.0381,
大田 (Ota),2015-12-13,02:01～03:00,0.0407,0.0362,0.0380,
大田 (Ota),2015-12-13,01:01～02:00,0.0406,0.0350,0.0381,
大田 (Ota),2015-12-13,00:01～01:00,0.0404,0.0352,0.0378,
大田 (Ota),2015-12-12,23:01～24:00,0.0406,0.0359,0.0377,
大田 (Ota),2015-12-12,22:01～23:00,0.0412,0.0357,0.0378,
大田 (Ota),2015-12-12,21:01～22:00,0.0413,0.0357,0.0379,
大田 (Ota),2015-12-12,20:01～21:00,0.0406,0.0359,0.0375,
大田 (Ota),2015-12-12,19:01～20:00,0.0400,0.0354,0.0373,
大田 (Ota),2015-12-12,18:01～19:00,0.0421,0.0357,0.0375,
大田 (Ota),2015-12-12,17:01～18:00,0.0410,0.0350,0.0376,
大田 (Ota),2015-12-12,16:01～17:00,0.0409,0.0360,0.0379,
大田 (Ota),2015-12-12,15:01～16:00,0.0409,0.0353,0.0378,
大田 (Ota),2015-12-12,14:01～15:00,0.0421,0.0358,0.0377,
大田 (Ota),2015-12-12,13:01～14:00,0.0417,0.0353,0.0382,
大田 (Ota),2015-12-12,12:01～13:00,0.0415,0.0356,0.0380,
大田 (Ota),2015-12-12,11:01～12:00,0.0420,0.0354,0.0380,
大田 (Ota),2015-12-12,10:01～11:00,0.0409,0.0360,0.0381,
大田 (Ota),2015-12-12,09:01～10:00,0.0412,0.0365,0.0382,
大田 (Ota),2015-12-12,08:01～09:00,0.0413,0.0358,0.0383,
大田 (Ota),2015-12-12,07:01～08:00,0.0410,0.0358,0.0379,
大田 (Ota),2015-12-12,06:01～07:00,0.0413,0.0361,0.0381,
大田 (Ota),2015-12-12,05:01～06:00,0.0413,0.0355,0.0379,
大田 (Ota),2015-12-12,04:01～05:00,0.0415,0.0356,0.0379,
大田 (Ota),2015-12-12,03:01～04:00,0.0426,0.0356,0.0377,
大田 (Ota),2015-12-12,02:01～03:00,0.0405,0.0361,0.0378,
大田 (Ota),2015-12-12,01:01～02:00,0.0413,0.0349,0.0381,
大田 (Ota),2015-12-12,00:01～01:00,0.0405,0.0359,0.0377,
大田 (Ota),2015-12-11,23:01～24:00,0.0412,0.0358,0.0375,
大田 (Ota),2015-12-11,22:01～23:00,0.0409,0.0354,0.0372,
大田 (Ota),2015-12-11,21:01～22:00,0.0441,0.0355,0.0376,
大田 (Ota),2015-12-11,20:01～21:00,0.0409,0.0357,0.0374,
大田 (Ota),2015-12-11,19:01～20:00,0.0404,0.0355,0.0377,
大田 (Ota),2015-12-11,18:01～19:00,0.0418,0.0352,0.0375,
大田 (Ota),2015-12-11,17:01～18:00,0.0412,0.0354,0.0375,
大田 (Ota),2015-12-11,16:01～17:00,0.0416,0.0352,0.0378,
大田 (Ota),2015-12-11,15:01～16:00,0.0417,0.0355,0.0374,
大田 (Ota),2015-12-11,14:01～15:00,0.0404,0.0334,0.0361,
大田 (Ota),2015-12-11,13:01～14:00,0.0410,0.0325,0.0353,
大田 (Ota),2015-12-11,12:01～13:00,0.0415,0.0360,0.0378,
大田 (Ota),2015-12-11,11:01～12:00,0.0417,0.0349,0.0376,
大田 (Ota),2015-12-11,10:01～11:00,0.0430,0.0370,0.0405,
大田 (Ota),2015-12-11,09:01～10:00,0.0481,0.0410,0.0442,
大田 (Ota),2015-12-11,08:01～09:00,0.0519,0.0415,0.0465,
大田 (Ota),2015-12-11,07:01～08:00,0.0557,0.0480,0.0524,
大田 (Ota),2015-12-11,06:01～07:00,0.0506,0.0446,0.0477,
大田 (Ota),2015-12-11,05:01～06:00,0.0495,0.0418,0.0449,
大田 (Ota),2015-12-11,04:01～05:00,0.0484,0.0395,0.0436,
大田 (Ota),2015-12-11,03:01～04:00,0.0480,0.0413,0.0442,
大田 (Ota),2015-12-11,02:01～03:00,0.0472,0.0403,0.0439,
大田 (Ota),2015-12-11,01:01～02:00,0.0470,0.0387,0.0427,
大田 (Ota),2015-12-11,00:01～01:00,0.0446,0.0384,0.0417,
大田 (Ota),2015-12-10,23:01～24:00,0.0445,0.0392,0.0417,
大田 (Ota),2015-12-10,22:01～23:00,0.0451,0.0389,0.0413,
大田 (Ota),2015-12-10,21:01～22:00,0.0434,0.0368,0.0400,
大田 (Ota),2015-12-10,20:01～21:00,0.0425,0.0365,0.0398,
大田 (Ota),2015-12-10,19:01～20:00,0.0422,0.0363,0.0391,
大田 (Ota),2015-12-10,18:01～19:00,0.0425,0.0358,0.0389,
大田 (Ota),2015-12-10,17:01～18:00,0.0424,0.0364,0.0389,
大田 (Ota),2015-12-10,16:01～17:00,0.0422,0.0362,0.0390,
大田 (Ota),2015-12-10,15:01～16:00,0.0416,0.0363,0.0389,
大田 (Ota),2015-12-10,14:01～15:00,0.0413,0.0357,0.0389,
大田 (Ota),2015-12-10,13:01～14:00,0.0433,0.0367,0.0391,
大田 (Ota),2015-12-10,12:01～13:00,0.0423,0.0366,0.0400,
大田 (Ota),2015-12-10,11:01～12:00,0.0435,0.0374,0.0401,
大田 (Ota),2015-12-10,10:01～11:00,0.0438,0.0367,0.0398,
大田 (Ota),2015-12-10,09:01～10:00,0.0432,0.0370,0.0401,
大田 (Ota),2015-12-10,08:01～09:00,0.0431,0.0372,0.0399,
大田 (Ota),2015-12-10,07:01～08:00,0.0437,0.0373,0.0402,
大田 (Ota),2015-12-10,06:01～07:00,0.0425,0.0369,0.0398,
大田 (Ota),2015-12-10,05:01～06:00,0.0428,0.0367,0.0394,
大田 (Ota),2015-12-10,04:01～05:00,0.0425,0.0368,0.0393,
大田 (Ota),2015-12-10,03:01～04:00,0.0415,0.0367,0.0392,
大田 (Ota),2015-12-10,02:01～03:00,0.0421,0.0367,0.0391,
大田 (Ota),2015-12-10,01:01～02:00,0.0418,0.0361,0.0392,
大田 (Ota),2015-12-10,00:01～01:00,0.0417,0.0365,0.0391,
大田 (Ota),2015-12-09,23:01～24:00,0.0424,0.0361,0.0384,
大田 (Ota),2015-12-09,22:01～23:00,0.0428,0.0357,0.0382,
大田 (Ota),2015-12-09,21:01～22:00,0.0425,0.0358,0.0383,
大田 (Ota),2015-12-09,20:01～21:00,0.0411,0.0356,0.0381,
大田 (Ota),2015-12-09,19:01～20:00,0.0408,0.0358,0.0379,
大田 (Ota),2015-12-09,18:01～19:00,0.0409,0.0357,0.0378,
大田 (Ota),2015-12-09,17:01～18:00,0.0426,0.0360,0.0383,
大田 (Ota),2015-12-09,16:01～17:00,0.0420,0.0365,0.0385,
大田 (Ota),2015-12-09,15:01～16:00,0.0409,0.0356,0.0383,
大田 (Ota),2015-12-09,14:01～15:00,0.0416,0.0361,0.0384,
大田 (Ota),2015-12-09,13:01～14:00,0.0425,0.0358,0.0381,
大田 (Ota),2015-12-09,12:01～13:00,0.0421,0.0363,0.0385,
大田 (Ota),2015-12-09,11:01～12:00,0.0414,0.0354,0.0383,
大田 (Ota),2015-12-09,10:01～11:00,0.0426,0.0363,0.0388,
大田 (Ota),2015-12-09,09:01～10:00,0.0439,0.0357,0.0390,
大田 (Ota),2015-12-09,08:01～09:00,0.0437,0.0354,0.0394,
大田 (Ota),2015-12-09,07:01～08:00,0.0427,0.0359,0.0390,
大田 (Ota),2015-12-09,06:01～07:00,0.0424,0.0362,0.0388,
大田 (Ota),2015-12-09,05:01～06:00,0.0414,0.0365,0.0389,
大田 (Ota),2015-12-09,04:01～05:00,0.0418,0.0362,0.0383,
大田 (Ota),2015-12-09,03:01～04:00,0.0420,0.0358,0.0387,
大田 (Ota),2015-12-09,02:01～03:00,0.0413,0.0358,0.0385,
大田 (Ota),2015-12-09,01:01～02:00,0.0414,0.0359,0.0384,
大田 (Ota),2015-12-09,00:01～01:00,0.0436,0.0354,0.0378,
大田 (Ota),2015-12-08,23:01～24:00,0.0418,0.0358,0.0380,
大田 (Ota),2015-12-08,22:01～23:00,0.0407,0.0355,0.0378,
大田 (Ota),2015-12-08,21:01～22:00,0.0408,0.0361,0.0380,
大田 (Ota),2015-12-08,20:01～21:00,0.0426,0.0357,0.0381,
大田 (Ota),2015-12-08,19:01～20:00,0.0413,0.0360,0.0378,
大田 (Ota),2015-12-08,18:01～19:00,0.0409,0.0363,0.0381,
大田 (Ota),2015-12-08,17:01～18:00,0.0412,0.0349,0.0379,
大田 (Ota),2015-12-08,16:01～17:00,0.0413,0.0355,0.0379,
大田 (Ota),2015-12-08,15:01～16:00,0.0426,0.0358,0.0378,
大田 (Ota),2015-12-08,14:01～15:00,0.0419,0.0352,0.0384,
大田 (Ota),2015-12-08,13:01～14:00,0.0408,0.0363,0.0380,
大田 (Ota),2015-12-08,12:01～13:00,0.0418,0.0363,0.0391,
大田 (Ota),2015-12-08,11:01～12:00,0.0412,0.0362,0.0387,
大田 (Ota),2015-12-08,10:01～11:00,0.0428,0.0364,0.0389,
大田 (Ota),2015-12-08,09:01～10:00,0.0419,0.0360,0.0390,
大田 (Ota),2015-12-08,08:01～09:00,0.0436,0.0367,0.0393,
大田 (Ota),2015-12-08,07:01～08:00,0.0434,0.0361,0.0390,
大田 (Ota),2015-12-08,06:01～07:00,0.0420,0.0367,0.0392,
大田 (Ota),2015-12-08,05:01～06:00,0.0422,0.0363,0.0389,
大田 (Ota),2015-12-08,04:01～05:00,0.0418,0.0364,0.0386,
大田 (Ota),2015-12-08,03:01～04:00,0.0433,0.0364,0.0387,
大田 (Ota),2015-12-08,02:01～03:00,0.0405,0.0361,0.0383,
大田 (Ota),2015-12-08,01:01～02:00,0.0418,0.0363,0.0384,
大田 (Ota),2015-12-08,00:01～01:00,0.0408,0.0360,0.0381,
大田 (Ota),2015-12-07,23:01～24:00,0.0422,0.0356,0.0383,
大田 (Ota),2015-12-07,22:01～23:00,0.0407,0.0360,0.0384,
大田 (Ota),2015-12-07,21:01～22:00,0.0418,0.0363,0.0381,
大田 (Ota),2015-12-07,20:01～21:00,0.0405,0.0359,0.0381,
大田 (Ota),2015-12-07,19:01～20:00,0.0414,0.0354,0.0382,
大田 (Ota),2015-12-07,18:01～19:00,0.0425,0.0357,0.0381,
大田 (Ota),2015-12-07,17:01～18:00,0.0407,0.0356,0.0378,
大田 (Ota),2015-12-07,16:01～17:00,0.0424,0.0358,0.0380,
大田 (Ota),2015-12-07,15:01～16:00,0.0409,0.0350,0.0384,
大田 (Ota),2015-12-07,14:01～15:00,0.0415,0.0364,0.0385,
大田 (Ota),2015-12-07,13:01～14:00,0.0411,0.0364,0.0382,
大田 (Ota),2015-12-07,12:01～13:00,0.0420,0.0366,0.0384,
大田 (Ota),2015-12-07,11:01～12:00,0.0418,0.0356,0.0384,
大田 (Ota),2015-12-07,10:01～11:00,0.0434,0.0364,0.0390,
大田 (Ota),2015-12-07,09:01～10:00,0.0424,0.0352,0.0387,
大田 (Ota),2015-12-07,08:01～09:00,0.0419,0.0363,0.0387,
大田 (Ota),2015-12-07,07:01～08:00,0.0426,0.0363,0.0386,
大田 (Ota),2015-12-07,06:01～07:00,0.0408,0.0355,0.0381,
大田 (Ota),2015-12-07,05:01～06:00,0.0420,0.0363,0.0386,
大田 (Ota),2015-12-07,04:01～05:00,0.0409,0.0358,0.0384,
大田 (Ota),2015-12-07,03:01～04:00,0.0421,0.0361,0.0384,
大田 (Ota),2015-12-07,02:01～03:00,0.0413,0.0360,0.0386,
大田 (Ota),2015-12-07,01:01～02:00,0.0415,0.0357,0.0380,
大田 (Ota),2015-12-07,00:01～01:00,0.0428,0.0357,0.0384,
